Sacramento Mather Airport Sacramento US
ICAO: KMHR
IATA: MHR
Category: Medium
Scheduled Services: No

Elevation: 99 ft
TransAlt. 18000 ft.

Airport Communications:
NORCAL APP/DEP:127.4
ATIS:118.325
CLNC DEL:121.85
GND:121.85
SPARTAN OPS:34.1
TWR:120.65
UNICOM:123.075

KMHR Zoom In..

Runways:

(A) RW 04L length 6038 ft width 150 ft
---- / hdg 37

(B) RW 04R length 11301 ft width 150 ft
---- / hdg 37

(C) RW 22L length 11301 ft width 150 ft
ILS 111.35 / hdg 217

(D) RW 22R length 6038 ft width 150 ft
---- / hdg 217

Location; KMHR
Day. 05 / Time. 17.50 Zulu
* Altimeter: 29.70
* Temperature: 22° c. 71.6°f.
* Wind from: 200° Speed 14 kn.
Dewpoint: 08° c.
Visibility: 10 Statute Miles.
Clouds: Clear (manual report).

KMHR 051750Z 20014KT 10SM SKC 22/08 A2970


Wind From 200°
Speed 14 kn.

 
 
jpsmedia worldairports.se 2020   terms of use